Terminal Aerodrome Forecast
Issued by NWS Billings, MT

Home | Current Version | Previous Version | Graphics & Text | Print | Product List | Glossary On
Versions: 1 2 3 4 5 6 7 8 9 10 11 12 13 14 15 16 17 18 19 20 21 22 23 24 25 26 27 28 29 30 31 32 33 34 35 36 37 38 39 40
000
FTUS45 KBYZ 212339
TAFMLS
TAF
KMLS 212339Z 2200/2224 VRB05KT P6SM VCFG SCT002 SCT120
      TEMPO 2200/2202 1/4SM FZFG VV002
     FM220500 VRB05KT 1/2SM FZFG VV002
     FM221800 24005KT P6SM FEW003=

USA.gov is the U.S. government's official web portal to all federal, state and local government web resources and services.